DW4839 Weather Reports


Display with metric or nautical units.
time (UTC)temp
F
wind
direction
speed
MPH
gust
MPH
rain 1hr
in
rain 24hr
in
rain mn
in
humidity
%
barometer
mb
20210618175552 64 11 7.0 12.0 0.00 0.00 0.00 65 1019.7
20210618175100 64 352 6.0 10.0 0.00 0.00 0.00 65 1019.7
20210618174614 64 41 3.0 10.0 0.00 0.00 0.00 65 1019.7
20210618174045 63 45 4.0 10.0 0.00 0.00 0.00 69 1019.8
20210618173546 63 22 4.0 11.0 0.00 0.00 0.00 65 1019.7
20210618173125 62 349 5.0 11.0 0.00 0.00 0.00 68 1019.7
20210618172545 63 336 4.0 11.0 0.00 0.00 0.00 67 1019.8
20210618172045 63 34 3.0 12.0 0.00 0.00 0.00 68 1019.8
20210618171611 62 26 5.0 12.0 0.00 0.00 0.00 67 1019.8
20210618171052 62 27 4.0 12.0 0.00 0.00 0.00 67 1019.8
20210618170547 62 17 4.0 12.0 0.00 0.00 0.00 68 1019.9
20210618170131 63 32 3.0 12.0 0.00 0.00 0.00 68 1020.0
20210618165546 61 352 4.0 13.0 0.00 0.00 0.00 73 1020.0
20210618165047 62 19 3.0 13.0 0.00 0.00 0.00 72 1019.9
20210618164606 61 333 3.0 11.0 0.00 0.00 0.00 71 1019.9
20210618164051 60 13 5.0 11.0 0.00 0.00 0.00 73 1019.9
20210618163547 61 49 3.0 9.0 0.00 0.00 0.00 74 1019.9
20210618163102 60 33 2.0 9.0 0.00 0.00 0.00 72 1019.9
20210618162545 60 17 5.0 10.0 0.00 0.00 0.00 72 1020.0
20210618162046 60 44 4.0 13.0 0.00 0.00 0.00 74 1019.9
20210618161813 59 25 7.0 13.0 0.00 0.00 0.00 74 1019.9
20210618161043 59 17 4.0 10.0 0.00 0.00 0.00 75 1019.9
20210618160609 59 33 5.0 9.0 0.00 0.00 0.00 74 1019.9
20210618160129 60 19 3.0 9.0 0.00 0.00 0.00 75 1019.9
20210618155552 59 50 4.0 11.0 0.00 0.00 0.00 75 1019.9
20210618155045 58 320 4.0 11.0 0.00 0.00 0.00 75 1019.9
20210618154621 58 51 4.0 10.0 0.00 0.00 0.00 76 1019.9
20210618154045 58 19 3.0 12.0 0.00 0.00 0.00 76 1019.8
20210618153545 58 20 7.0 12.0 0.00 0.00 0.00 75 1019.8
20210618153122 58 5 4.0 12.0 0.00 0.00 0.00 75 1019.8
20210618152543 57 334 4.0 12.0 0.00 0.00 0.00 77 1019.8
20210618152104 58 10 4.0 14.0 0.00 0.00 0.00 77 1019.8
20210618151750 57 352 5.0 14.0 0.00 0.00 0.00 76 1019.8
20210618151047 57 9 5.0 11.0 0.00 0.00 0.00 77 1019.8
20210618150551 57 338 4.0 10.0 0.00 0.00 0.00 78 1019.8
20210618150140 57 32 4.0 13.0 0.00 0.00 0.00 79 1019.8
20210618145542 57 29 4.0 13.0 0.00 0.00 0.00 79 1019.9
20210618145045 57 360 5.0 11.0 0.00 0.00 0.00 79 1019.8
20210618144625 57 48 3.0 16.0 0.00 0.00 0.00 80 1019.9
20210618144046 56 325 6.0 16.0 0.00 0.00 0.00 80 1019.8
20210618143549 56 352 5.0 11.0 0.00 0.00 0.00 80 1019.7
20210618143105 56 331 6.0 14.0 0.00 0.00 0.00 80 1019.6
20210618142553 56 352 5.0 14.0 0.00 0.00 0.00 81 1019.7
20210618142049 56 360 4.0 13.0 0.00 0.00 0.00 82 1019.6
20210618141717 55 355 5.0 13.0 0.00 0.00 0.00 82 1019.6
20210618141047 55 352 4.0 13.0 0.00 0.00 0.00 82 1019.7
20210618140607 54 349 5.0 15.0 0.00 0.00 0.00 83 1019.7
20210618140140 54 348 7.0 15.0 0.00 0.00 0.00 83 1019.6
20210618135557 54 345 6.0 14.0 0.00 0.00 0.00 83 1019.6
20210618135045 54 323 5.0 14.0 0.00 0.00 0.00 84 1019.6
20210618134628 53 13 7.0 13.0 0.00 0.00 0.00 83 1019.6
20210618134044 53 346 5.0 12.0 0.00 0.00 0.00 84 1019.6
20210618133548 53 348 5.0 12.0 0.00 0.00 0.00 84 1019.6
20210618133240 52 11 6.0 14.0 0.00 0.00 0.00 84 1019.6
20210618132609 52 339 6.0 14.0 0.00 0.00 0.00 84 1019.5
20210618132112 52 346 5.0 14.0 0.00 0.00 0.00 83 1019.5
20210618131707 52 9 5.0 14.0 0.00 0.00 0.00 83 1019.5
20210618131047 52 13 5.0 13.0 0.00 0.00 0.00 83 1019.4
20210618130554 52 9 5.0 13.0 0.00 0.00 0.00 83 1019.4
20210618130132 52 346 6.0 11.0 0.00 0.00 0.00 82 1019.4
20210618125548 52 346 4.0 12.0 0.00 0.00 0.00 82 1019.4
20210618125045 51 334 5.0 12.0 0.00 0.00 0.00 81 1019.4
20210618124646 51 14 4.0 10.0 0.00 0.00 0.00 81 1019.3
20210618124045 51 352 4.0 10.0 0.00 0.00 0.00 80 1019.4
20210618123552 51 13 3.0 10.0 0.00 0.00 0.00 80 1019.4
20210618123230 51 338 3.0 8.0 0.00 0.00 0.00 79 1019.4
20210618122610 51 344 2.0 8.0 0.00 0.00 0.00 79 1019.3
20210618122056 51 9 3.0 7.0 0.00 0.00 0.00 78 1019.3
20210618121705 51 352 3.0 9.0 0.00 0.00 0.00 78 1019.3
20210618121045 51 34 3.0 9.0 0.00 0.00 0.00 77 1019.3
20210618120546 51 0 1.0 8.0 0.00 0.00 0.00 77 1019.2
20210618120203 51 10 2.0 8.0 0.00 0.00 0.00 77 1019.2
20210618115601 52 5 2.0 8.0 0.00 0.00 0.00 76 1019.2
20210618115054 52 352 3.0 8.0 0.00 0.00 0.00 76 1019.2
20210618114713 52 9 2.0 6.0 0.00 0.00 0.00 76 1019.2
20210618114047 52 360 2.0 9.0 0.00 0.00 0.00 76 1019.2
20210618113616 52 338 3.0 9.0 0.00 0.00 0.00 75 1019.0
20210618113123 52 344 2.0 6.0 0.00 0.00 0.00 75 1019.1
20210618112551 52 5 2.0 7.0 0.00 0.00 0.00 75 1018.9
20210618112048 52 11 3.0 8.0 0.00 0.00 0.00 74 1018.9
20210618111740 52 350 3.0 8.0 0.00 0.00 0.00 74 1019.0
20210618111045 52 26 4.0 10.0 0.00 0.00 0.00 74 1019.0
20210618110545 52 340 4.0 10.0 0.00 0.00 0.00 74 1018.9
20210618110140 52 352 3.0 8.0 0.00 0.00 0.00 74 1018.9
20210618105546 52 5 3.0 8.0 0.00 0.00 0.00 74 1018.9
20210618105115 52 332 3.0 8.0 0.00 0.00 0.00 74 1018.9
20210618104637 52 343 2.0 8.0 0.00 0.00 0.00 75 1018.9
20210618104053 52 5 3.0 8.0 0.00 0.00 0.00 74 1019.0
20210618103545 52 11 2.0 5.0 0.00 0.00 0.00 74 1018.9
20210618103156 53 5 0.0 3.0 0.00 0.00 0.00 74 1018.9
20210618102546 53 317 1.0 3.0 0.00 0.00 0.00 74 1019.0
20210618102044 53 352 0.0 3.0 0.00 0.00 0.00 73 1019.0
20210618101621 53 16 1.0 7.0 0.00 0.00 0.00 73 1019.0
20210618101047 53 352 2.0 7.0 0.00 0.00 0.00 73 1019.0
20210618100604 53 5 1.0 6.0 0.00 0.00 0.00 73 1018.9
20210618100138 53 29 2.0 6.0 0.00 0.00 0.00 73 1018.9
20210618095548 53 302 1.0 8.0 0.00 0.00 0.00 72 1018.9
20210618095044 54 337 2.0 8.0 0.00 0.00 0.00 73 1018.8
20210618094718 54 15 2.0 8.0 0.00 0.00 0.00 73 1018.8
20210618094044 54 310 3.0 10.0 0.00 0.00 0.00 73 1018.8
20210618093550 54 314 3.0 10.0 0.00 0.00 0.00 72 1018.9
20210618093114 54 9 2.0 9.0 0.00 0.00 0.00 73 1018.9
20210618092545 54 346 1.0 5.0 0.00 0.00 0.00 73 1018.9
20210618092055 54 0 1.0 5.0 0.00 0.00 0.00 72 1018.9
20210618091718 55 0 1.0 6.0 0.00 0.00 0.00 72 1018.8
20210618091047 55 352 2.0 6.0 0.00 0.00 0.00 71 1018.9
20210618090559 55 9 1.0 5.0 0.00 0.00 0.00 71 1018.9
20210618090115 55 9 1.0 5.0 0.00 0.00 0.00 71 1018.9
20210618085555 55 316 2.0 9.0 0.00 0.00 0.00 71 1018.8
20210618085116 56 316 3.0 9.0 0.00 0.00 0.00 70 1018.9
20210618084750 56 360 1.0 6.0 0.00 0.00 0.00 70 1018.9
20210618084051 56 304 1.0 8.0 0.00 0.00 0.00 70 1019.0
20210618083543 56 344 2.0 8.0 0.00 0.00 0.00 70 1018.9
20210618083151 56 11 2.0 9.0 0.00 0.00 0.00 70 1018.9
20210618082544 56 340 3.0 9.0 0.00 0.00 0.00 69 1018.8
20210618082102 56 318 3.0 8.0 0.00 0.00 0.00 69 1018.9
20210618081623 57 25 2.0 8.0 0.00 0.00 0.00 69 1019.0
20210618081045 57 22 2.0 10.0 0.00 0.00 0.00 69 1018.8
20210618080601 57 351 3.0 10.0 0.00 0.00 0.00 69 1018.8
20210618080218 57 345 2.0 11.0 0.00 0.00 0.00 69 1018.8
20210618075553 57 329 5.0 12.0 0.00 0.00 0.00 69 1018.8
20210618075109 58 55 4.0 12.0 0.00 0.00 0.00 68 1018.8
20210618074801 58 352 4.0 14.0 0.00 0.00 0.00 69 1018.8
20210618074043 58 352 4.0 14.0 0.00 0.00 0.00 68 1018.8
20210618073543 58 10 2.0 9.0 0.00 0.00 0.00 69 1018.8
20210618073121 58 350 2.0 10.0 0.00 0.00 0.00 69 1018.8
20210618072604 59 331 4.0 10.0 0.00 0.00 0.00 68 1018.9
20210618072125 59 325 3.0 10.0 0.00 0.00 0.00 68 1018.9
20210618071658 59 327 3.0 10.0 0.00 0.00 0.00 68 1018.8
20210618071047 59 336 3.0 11.0 0.00 0.00 0.00 68 1018.8
20210618070547 59 315 4.0 11.0 0.00 0.00 0.00 67 1018.9
20210618070128 59 320 4.0 11.0 0.00 0.00 0.00 67 1018.8
20210618065550 60 335 4.0 10.0 0.00 0.00 0.00 68 1018.9
20210618065055 60 350 3.0 9.0 0.00 0.00 0.00 68 1018.7
20210618064653 60 284 3.0 14.0 0.00 0.00 0.00 68 1018.7
20210618064050 60 347 3.0 14.0 0.00 0.00 0.00 68 1018.8
20210618063545 61 317 3.0 8.0 0.00 0.00 0.00 67 1018.8
20210618063200 61 334 3.0 11.0 0.00 0.00 0.00 67 1018.8
20210618062545 61 346 4.0 11.0 0.00 0.00 0.00 66 1018.8
20210618062122 61 331 3.0 12.0 0.00 0.00 0.00 66 1018.8
20210618061657 61 14 4.0 12.0 0.00 0.00 0.00 66 1018.7
20210618061048 62 350 3.0 11.0 0.00 0.00 0.00 66 1018.7
20210618060547 62 11 3.0 7.0 0.00 0.00 0.00 66 1018.6
20210618060127 62 327 3.0 11.0 0.00 0.00 0.00 66 1018.7
20210618055547 62 62 3.0 11.0 0.00 0.00 0.00 65 1018.6
20210618055045 63 34 2.0 12.0 0.00 0.00 0.00 65 1018.6
20210618054647 63 335 2.0 12.0 0.00 0.00 0.00 65 1018.6
20210618054045 63 262 4.0 14.0 0.00 0.00 0.00 65 1018.6
20210618053550 63 329 6.0 14.0 0.00 0.00 0.00 65 1018.6
20210618053149 63 5 3.0 12.0 0.00 0.00 0.00 66 1018.5
20210618052642 63 17 5.0 12.0 0.00 0.00 0.00 65 1018.5
20210618052055 63 338 5.0 10.0 0.00 0.00 0.00 65 1018.4
20210618051642 64 344 4.0 10.0 0.00 0.00 0.00 66 1018.4
20210618051057 64 360 3.0 10.0 0.00 0.00 0.00 65 1018.5
20210618050547 64 342 3.0 10.0 0.00 0.00 0.00 65 1018.5
20210618050135 64 352 3.0 11.0 0.00 0.00 0.00 65 1018.5
20210618045609 64 360 5.0 11.0 0.00 0.00 0.00 64 1018.4
20210618045044 65 18 3.0 10.0 0.00 0.00 0.00 65 1018.3
20210618044630 65 350 4.0 11.0 0.00 0.00 0.00 63 1018.4
20210618044046 65 350 4.0 11.0 0.00 0.00 0.00 64 1018.3
20210618043558 65 340 3.0 9.0 0.00 0.00 0.00 64 1018.3
20210618043213 66 336 2.0 9.0 0.00 0.00 0.00 63 1018.3
20210618042552 66 35 1.0 6.0 0.00 0.00 0.00 63 1018.2
20210618042104 66 349 2.0 8.0 0.00 0.00 0.00 63 1018.2
20210618041617 67 346 2.0 8.0 0.00 0.00 0.00 63 1018.1
20210618041114 67 297 2.0 8.0 0.00 0.00 0.00 63 1018.2
20210618040547 67 335 1.0 6.0 0.00 0.00 0.00 63 1018.2
20210618040155 67 9 0.0 4.0 0.00 0.00 0.00 61 1018.2
20210618035546 68 319 1.0 5.0 0.00 0.00 0.00 61 1018.1
20210618035043 68 0 0.0 5.0 0.00 0.00 0.00 61 1018.1
20210618034606 68 335 2.0 5.0 0.00 0.00 0.00 60 1018.1
20210618034043 69 335 0.0 6.0 0.00 0.00 0.00 60 1018.2
20210618033545 69 331 1.0 6.0 0.00 0.00 0.00 60 1018.2
20210618033119 69 323 1.0 6.0 0.00 0.00 0.00 60 1018.2
20210618032543 69 0 1.0 6.0 0.00 0.00 0.00 59 1018.1
20210618032046 69 30 0.0 5.0 0.00 0.00 0.00 59 1018.1
20210618031710 69 0 1.0 5.0 0.00 0.00 0.00 58 1017.9
20210618031051 70 282 0.0 5.0 0.00 0.00 0.00 56 1018.0
20210618030549 70 289 1.0 5.0 0.00 0.00 0.00 56 1018.0
20210618030111 70 0 1.0 5.0 0.00 0.00 0.00 55 1017.9
20210618025554 70 0 1.0 5.0 0.00 0.00 0.00 55 1017.9
20210618025106 70 17 1.0 6.0 0.00 0.00 0.00 54 1017.9
20210618024656 71 242 1.0 7.0 0.00 0.00 0.00 53 1018.0
20210618024044 71 339 1.0 7.0 0.00 0.00 0.00 52 1017.9
20210618023603 71 332 2.0 10.0 0.00 0.00 0.00 52 1018.0
20210618023121 71 338 3.0 10.0 0.00 0.00 0.00 51 1018.1
20210618022551 71 124 2.0 9.0 0.00 0.00 0.00 50 1018.0
20210618022047 71 0 1.0 8.0 0.00 0.00 0.00 49 1018.1
20210618021623 72 0 1.0 8.0 0.00 0.00 0.00 47 1018.0
20210618021047 72 312 2.0 7.0 0.00 0.00 0.00 46 1018.1
20210618020546 72 287 2.0 9.0 0.00 0.00 0.00 44 1018.0
20210618020111 72 339 1.0 9.0 0.00 0.00 0.00 44 1018.1
20210618015547 72 5 1.0 7.0 0.00 0.00 0.00 42 1018.2
20210618015046 72 346 2.0 9.0 0.00 0.00 0.00 41 1018.3
20210618014627 73 34 1.0 10.0 0.00 0.00 0.00 41 1018.4
20210618014046 73 0 3.0 10.0 0.00 0.00 0.00 39 1018.4
20210618013547 73 330 1.0 6.0 0.00 0.00 0.00 40 1018.3
20210618013143 73 53 1.0 8.0 0.00 0.00 0.00 39 1018.5
20210618012545 73 269 1.0 9.0 0.00 0.00 0.00 40 1018.4
20210618012044 73 360 3.0 17.0 0.00 0.00 0.00 39 1018.5
20210618011717 74 37 4.0 17.0 0.00 0.00 0.00 38 1018.5
20210618011046 74 9 2.0 9.0 0.00 0.00 0.00 40 1018.5
20210618010543 74 350 2.0 9.0 0.00 0.00 0.00 36 1018.7
20210618010220 74 340 3.0 9.0 0.00 0.00 0.00 37 1018.7
20210618005602 75 48 2.0 10.0 0.00 0.00 0.00 38 1018.8
20210618005049 74 360 3.0 10.0 0.00 0.00 0.00 39 1018.8
20210618004631 74 360 2.0 8.0 0.00 0.00 0.00 38 1019.1
20210618004106 75 0 2.0 8.0 0.00 0.00 0.00 37 1019.1
20210618003546 75 345 3.0 7.0 0.00 0.00 0.00 37 1018.9
20210618003144 75 250 2.0 15.0 0.00 0.00 0.00 38 1019.2
20210618002546 75 306 3.0 15.0 0.00 0.00 0.00 37 1019.3
20210618002103 76 40 1.0 10.0 0.00 0.00 0.00 35 1019.3
20210618001658 76 344 3.0 10.0 0.00 0.00 0.00 35 1019.3
20210618001045 76 340 4.0 11.0 0.00 0.00 0.00 35 1019.4
20210618000612 76 327 5.0 12.0 0.00 0.00 0.00 35 1019.4
20210618000107 76 15 4.0 12.0 0.00 0.00 0.00 34 1019.4
20210617235551 76 15 3.0 14.0 0.00 0.00 0.00 34 1019.4
20210617235047 76 21 5.0 14.0 0.00 0.00 0.00 36 1019.4
20210617234700 76 24 4.0 12.0 0.00 0.00 0.00 38 1019.3
20210617234047 76 5 3.0 12.0 0.00 0.00 0.00 34 1019.4
20210617233603 77 327 2.0 8.0 0.00 0.00 0.00 38 1019.4
20210617233127 77 46 2.0 7.0 0.00 0.00 0.00 36 1019.5
20210617232603 76 27 2.0 9.0 0.00 0.00 0.00 34 1019.5
20210617232046 76 10 2.0 9.0 0.00 0.00 0.00 35 1019.5
20210617231653 77 352 2.0 9.0 0.00 0.00 0.00 36 1019.5
20210617231058 76 338 2.0 9.0 0.00 0.00 0.00 42 1019.7
20210617230554 76 9 3.0 8.0 0.00 0.00 0.00 34 1019.7
20210617230129 77 40 1.0 7.0 0.00 0.00 0.00 39 1019.7
20210617225549 76 10 3.0 7.0 0.00 0.00 0.00 41 1019.7
20210617225045 77 56 2.0 9.0 0.00 0.00 0.00 40 1019.8
20210617224639 76 337 2.0 10.0 0.00 0.00 0.00 40 1019.8
20210617224058 76 11 4.0 10.0 0.00 0.00 0.00 42 1019.8
20210617223600 76 13 2.0 12.0 0.00 0.00 0.00 42 1019.9
20210617223107 75 17 6.0 14.0 0.00 0.00 0.00 42 1019.9
20210617222557 75 25 4.0 14.0 0.00 0.00 0.00 43 1020.0
20210617222054 76 5 4.0 11.0 0.00 0.00 0.00 44 1020.0
20210617221723 76 11 4.0 11.0 0.00 0.00 0.00 45 1020.0
20210617221125 75 338 5.0 11.0 0.00 0.00 0.00 43 1020.1
20210617220622 76 19 3.0 9.0 0.00 0.00 0.00 43 1020.2
20210617220211 76 350 4.0 12.0 0.00 0.00 0.00 43 1020.1
20210617215547 75 5 4.0 12.0 0.00 0.00 0.00 45 1020.2
20210617215048 75 22 4.0 12.0 0.00 0.00 0.00 46 1020.3
20210617214718 74 352 5.0 13.0 0.00 0.00 0.00 43 1020.3
20210617214056 75 360 6.0 13.0 0.00 0.00 0.00 45 1020.4
20210617213550 74 336 6.0 13.0 0.00 0.00 0.00 42 1020.4
20210617213138 75 22 4.0 9.0 0.00 0.00 0.00 43 1020.5
20210617212611 75 17 2.0 12.0 0.00 0.00 0.00 44 1020.6
20210617212045 75 57 3.0 12.0 0.00 0.00 0.00 44 1020.7
20210617211601 74 290 2.0 12.0 0.00 0.00 0.00 48 1020.7
20210617211102 74 41 5.0 12.0 0.00 0.00 0.00 46 1020.7
20210617210547 73 335 6.0 15.0 0.00 0.00 0.00 48 1020.8
20210617210200 73 346 6.0 15.0 0.00 0.00 0.00 48 1020.8
20210617205551 73 26 6.0 12.0 0.00 0.00 0.00 50 1020.9
20210617205053 73 11 5.0 12.0 0.00 0.00 0.00 53 1021.0
20210617204613 73 304 4.0 12.0 0.00 0.00 0.00 54 1021.0
20210617204044 73 19 6.0 12.0 0.00 0.00 0.00 51 1021.2
20210617203609 73 9 7.0 12.0 0.00 0.00 0.00 52 1021.2
20210617203135 72 44 4.0 12.0 0.00 0.00 0.00 55 1021.3
20210617202558 73 352 4.0 12.0 0.00 0.00 0.00 57 1021.3
20210617202100 72 15 4.0 12.0 0.00 0.00 0.00 56 1021.4
20210617201837 72 21 3.0 11.0 0.00 0.00 0.00 60 1021.4
20210617201045 72 360 4.0 11.0 0.00 0.00 0.00 55 1021.5
20210617200545 72 20 2.0 12.0 0.00 0.00 0.00 58 1021.5
20210617200218 72 11 3.0 12.0 0.00 0.00 0.00 58 1021.6
20210617195545 72 5 3.0 13.0 0.00 0.00 0.00 56 1021.6
20210617195054 72 272 3.0 13.0 0.00 0.00 0.00 57 1021.6
20210617194725 71 5 4.0 12.0 0.00 0.00 0.00 58 1021.6
20210617194044 71 21 2.0 9.0 0.00 0.00 0.00 57 1021.6
20210617193548 71 328 2.0 9.0 0.00 0.00 0.00 59 1021.6
20210617193204 71 329 2.0 5.0 0.00 0.00 0.00 60 1021.7
20210617192544 71 221 1.0 5.0 0.00 0.00 0.00 62 1021.8
20210617192047 71 33 2.0 8.0 0.00 0.00 0.00 61 1021.7
20210617191639 70 17 3.0 9.0 0.00 0.00 0.00 60 1021.7
20210617191047 70 44 2.0 9.0 0.00 0.00 0.00 61 1021.8
20210617190547 70 34 3.0 9.0 0.00 0.00 0.00 62 1021.8
20210617190119 70 5 3.0 9.0 0.00 0.00 0.00 65 1021.8
20210617185607 70 58 3.0 9.0 0.00 0.00 0.00 61 1021.7
20210617185045 69 20 2.0 6.0 0.00 0.00 0.00 64 1021.8
20210617184646 69 28 1.0 8.0 0.00 0.00 0.00 63 1021.9
20210617184051 69 5 3.0 9.0 0.00 0.00 0.00 66 1021.9
20210617183544 69 5 4.0 9.0 0.00 0.00 0.00 68 1021.9
20210617183208 69 352 2.0 8.0 0.00 0.00 0.00 68 1021.9
20210617182553 68 32 2.0 10.0 0.00 0.00 0.00 69 1021.9
20210617182047 68 9 3.0 10.0 0.00 0.00 0.00 70 1022.0
20210617181549 67 40 5.0 10.0 0.00 0.00 0.00 65 1022.0
20210617181045 68 69 2.0 8.0 0.00 0.00 0.00 69 1022.1
20210617180545 68 346 2.0 7.0 0.00 0.00 0.00 68 1021.9
20210617180147 67 337 3.0 7.0 0.00 0.00 0.00 68 1022.1